Regional Weather Roundup
Issued by NWS

Home | Current Version | Previous Version | Text Only | Print | Product List | Glossary Off
Versions: 1 2 3 4 5 6 7 8 9 10 11 12 13 14 15 16 17 18 19 20 21 22 23 24 25 26 27 28 29 30 31 32 33 34 35 36 37 38 39 40 41 42 43 44 45 46 47 48 49 50

000
ASUS43 KLOT 030621
RWRIL

ILLINOIS REGIONAL WEATHER ROUNDUP
NATIONAL WEATHER SERVICE CHICAGO/ROMEOVILLE IL
100 AM CDT FRI JUL 03 2015

NOTE: "FAIR" INDICATES FEW OR NO CLOUDS BELOW 12,000 FEET WITH NO
SIGNIFICANT WEATHER AND/OR OBSTRUCTIONS TO VISIBILITY.

* THESE STATIONS ARE NOT UNDER NWS QUALITY CONTROL. THEY ALSO MAY NOT
  REPORT WEATHER SUCH AS PRECIPITATION OR FOG.

ILZ001-002-007-009-015-016-024-030700-
NORTHWEST ILLINOIS

CITY           SKY/WX    TMP DP  RH WIND       PRES   REMARKS
MOLINE         CLOUDY    63  58  83 SE3       29.98R
6HR MIN TEMP:  62; 6HR MAX TEMP:  70;

STERLING*      CLOUDY    59  55  88 E8        29.98F
SAVANNA*       CLOUDY    58  53  83 E3        29.99S
$$

ILZ003-004-008-010-011-017-018-030700-
NORTH CENTRAL ILLINOIS

CITY           SKY/WX    TMP DP  RH WIND       PRES   REMARKS
ROCKFORD       CLOUDY    58  51  78 NE5       30.02R
6HR MIN TEMP:  58; 6HR MAX TEMP:  70;

FREEPORT*      MOCLDY    54  52  92 E3        30.02S
ROCHELLE*      CLOUDY    57  52  85 E8        30.00F
DE KALB*       MOCLDY    53  48  86 NE6       30.01S
PERU*          CLOUDY    60  54  80 E8        29.99S
$$

ILZ005-006-012>014-019>023-030700-
NORTHEAST ILLINOIS

CITY           SKY/WX    TMP DP  RH WIND       PRES   REMARKS
CHICAGO-OHARE  CLOUDY    57  48  72 N3        30.00S
6HR MIN TEMP:  57; 6HR MAX TEMP:  63;

CHICAGO-MIDWAY CLOUDY    62  51  67 N6        29.99S
6HR MIN TEMP:  61; 6HR MAX TEMP:  66;

AURORA         MOCLDY    57  48  72 NE7       30.00R
6HR MIN TEMP:  57; 6HR MAX TEMP:  69;

LANSING*       PTCLDY    59  54  82 N3        29.99S
JOLIET*        MOCLDY    59  52  77 NE8       29.98F
WAUKEGAN       MOCLDY    54  48  80 N3        30.00S
6HR MIN TEMP:  52; 6HR MAX TEMP:  59;

DUPAGE AIRPORT PTCLDY    54  48  80 N6        30.00R
6HR MIN TEMP:  54; 6HR MAX TEMP:  66;

KANKAKEE*      MOCLDY    59  57  94 NE7       29.97F
WHEELING       PTCLDY    56  47  71 NW3       30.02R
6HR MIN TEMP:  55; 6HR MAX TEMP:  62;

MORRIS*        MOCLDY    58  52  81 CALM      29.96S
ROMEOVILLE*    MOCLDY    58  50  75 NE9       29.99F
NORTHERLY ISL    N/A     61  52  72 N6          N/A
$$

LMZ740>746-030700-
SOUTHERN LAKE MICHIGAN

STATION/POSITION SKY/WX   TEMP    WIND        PRES    VSBY  WAVE
                          AIR SEA DIR/SP/G                  HT/PER
                          (F)     (DEG/KT/KT) (MB)    (MI)  (FT/S)
HARRISON CRIB              60     350/  8/  9   N/A
BURNHAM HARBOR             61     350/  5/  9   N/A
CALUMET HARBOR             60     340/  4/  5   N/A
BURNS HARBOR               62      70/  8/ 10 1016.3R
MICHIGAN CITY              59      30/ 10/ 11   N/A
MICHIGAN CITY 6N           61 62   80/  8/ 10   N/A           3/ 5
ST. JOSEPH                 61 61                N/A           2/ 4
$$

ILZ025>027-034>036-040-047-049-050-058-095>099-030700-
WEST-CENTRAL ILLINOIS

CITY           SKY/WX    TMP DP  RH WIND       PRES   REMARKS
QUINCY         CLOUDY    64  60  87 N6        29.96R
GALESBURG*     CLOUDY    63  57  82 E5        29.97S
MACOMB*        CLOUDY    63  60  92 N3        29.98S
JACKSONVILLE*  CLOUDY    66  63  87 N3        29.94R
PITTSFIELD*    MOCLDY    65  61  86 N3        29.95F
$$

ILZ028>032-037-038-041>044-048-051>054-059>061-030700-
CENTRAL ILLINOIS

CITY           SKY/WX    TMP DP  RH WIND       PRES   REMARKS
PONTIAC        CLOUDY    60  57  88 NE8       29.97S
BLOOMINGTON    CLOUDY    61  59  93 NE8       29.97R
DECATUR        CLOUDY    65  60  84 N7        29.93R
PEORIA         CLOUDY    67  56  67 NE12      29.96R
6HR MIN TEMP:  67; 6HR MAX TEMP:  73;

LACON*         CLOUDY    61  55  81 NE5       29.96F
LINCOLN*       CLOUDY    64  59  83 NE5       29.94F
SPRINGFIELD    LGT RAIN  68  61  78 NE7       29.93S
6HR MIN TEMP:  67; 6HR MAX TEMP:  74; 6HR PCP: TRACE;

TAYLORVILLE    MOCLDY    63  61  94 N5        29.92F
$$

ILZ033-039-045-046-055>057-062-063-030700-
EAST-CENTRAL ILLINOIS

CITY           SKY/WX    TMP DP  RH WIND       PRES   REMARKS
CHAMPAIGN      CLOUDY    65  60  84 NE13      29.93R
DANVILLE*      CLOUDY    64  61  90 NE6       29.90F
RANTOUL*       CLOUDY    64  61  87 NE9       29.94S
MATTOON        MOCLDY    66  63  90 N7        29.90S
PARIS*         CLOUDY    68  64  88 NE6       29.91S
$$

ILZ079-100>102-030700-
SOUTHWEST ILLINOIS

CITY           SKY/WX    TMP DP  RH WIND       PRES   REMARKS
ALTON          MOCLDY    67  67 100 NW3       29.92F
BELLEVILLE     CLOUDY    68  65  90 VRB3      29.89F
CAHOKIA*       CLOUDY    70  63  78 N3        29.91S
SPARTA*        CLOUDY    69  64  84 N3        29.91S
$$

ILZ064>066-069>071-074>076-080>082-084>086-088>090-092>094-030700-
SOUTH-CENTRAL ILLINOIS

CITY           SKY/WX    TMP DP  RH WIND       PRES   REMARKS
CARBONDALE     MOCLDY    71  68  90 N5        29.88F
6HR MIN TEMP:  71; 6HR MAX TEMP:  75;

CAIRO*         CLOUDY    72  69  90 N3        29.87F
EFFINGHAM*     MOCLDY    69  64  83 CALM      29.91F
MARION         CLOUDY    72  70  94 CALM      29.89S
MT. VERNON     PTCLDY    68  63  83 CALM      29.88F
CENTRALIA*     MOCLDY    68  64  85 CALM      29.90S
SALEM*         MOCLDY    69  65  88 N3        29.90S
METROPOLIS*    CLOUDY    73  73 100 CALM      29.88S
$$

ILZ067-068-072-073-078-083-087-091-030700-
SOUTHEAST ILLINOIS

CITY           SKY/WX    TMP DP  RH WIND       PRES   REMARKS
LAWRENCEVILLE  PTCLDY    70  68  93 N3        29.87S
FLORA*         PTCLDY    69  66  89 N5        29.89F
FAIRFIELD*     MOCLDY    71  68  90 N3        29.87F
HARRISBURG*    CLOUDY    73  71  95 CALM      29.88F
ROBINSON*      CLOUDY    69  67  94 N6        29.89S
CARMI*         CLOUDY    73  66  80 CALM      29.87S
$$

ABBREVIATIONS USED IN REMARKS
   TC - TEMPERATURE IN CELSIUS
  WCI - WIND CHILL INDEX
   HX - HEAT INDEX
  VSB - VISIBILITY
$$




USA.gov is the U.S. government's official web portal to all federal, state and local government web resources and services.